Select another period ( hide this area )

Units Period Custom range Directly to
Metric English Both
Daily Weekly Monthly Yearly
use both date-selectors for a custom range
previous Day
With this date
Daily Summary for Saturday Jul 31 2021
Time Temp. ( °C ) Dew pt. ( °C ) Wind ( km/h ) From Gust ( km/h ) Pressure ( hPa ) Humid.( % ) Rainrate ( cm )
High21,1 16,4 14,0 NW ( 366/1361 ) 23,0 1008,8 94 6,60
Average17,2 14,9 5,5 NW #56/249 10,4 1005,3 86 2,70
Low15,2 13,4 1,0   3,0 1002,0 71 -
Daily Tabular details for Saturday Jul 31 2021
Time Temp. ( °C ) Dew pt. ( °C ) Wind ( km/h ) From Gust ( km/h ) Pressure ( hPa ) Humid.( % ) Rainrate ( cm )
00:04 16,8 13,4 5,0 NW 11,0 1003,1 81 -
00:09 16,6 13,6 3,0 WNW 8,0 1003,1 83 -
00:14 16,3 13,6 5,0 NNE 8,0 1003,1 84 -
00:19 16,1 13,6 5,0 NE 13,0 1003,1 85 -
00:24 16,0 13,5 5,0 North 6,0 1002,7 85 -
00:29 15,9 13,6 8,0 ENE 13,0 1002,7 86 -
00:34 15,9 13,4 3,0 ENE 10,0 1002,7 85 -
00:39 15,9 13,4 6,0 ENE 10,0 1002,4 85 -
00:44 15,9 13,4 5,0 ENE 10,0 1002,4 85 -
00:49 16,0 13,6 8,0 NNE 8,0 1002,4 86 0,25
00:54 15,9 13,4 3,0 NE 16,0 1002,4 85 0,25
00:59 15,9 13,4 6,0 ENE 15,0 1002,4 85 0,25
01:04 15,9 13,4 10,0 NE 15,0 1002,4 85 0,25
01:09 15,9 13,4 10,0 ENE 15,0 1002,4 85 0,25
01:14 16,0 13,5 6,0 NW 15,0 1002,4 85 0,25
01:19 16,0 13,5 11,0 East 13,0 1002,4 85 0,25
01:24 16,0 13,5 6,0 ENE 13,0 1002,4 85 0,51
01:29 16,0 13,7 5,0 North 13,0 1002,4 87 0,51
01:34 15,9 13,8 5,0 NNW 10,0 1002,4 88 1,27
01:39 15,8 13,9 5,0 NNE 8,0 1002,4 89 1,52
01:44 15,7 13,9 6,0 East 10,0 1002,4 89 1,52
01:49 15,6 14,0 3,0 NNW 6,0 1002,4 90 1,52
01:54 15,6 14,0 6,0 NE 8,0 1002,4 90 1,52
01:59 15,5 13,9 5,0 NNE 11,0 1002,4 90 1,52
02:09 15,4 13,9 3,0 ENE 6,0 1002,4 91 1,52
02:14 15,4 13,9 3,0 North 10,0 1002,0 91 1,52
02:19 15,4 13,9 3,0 ENE 6,0 1002,4 91 1,52
02:24 15,4 13,9 3,0 ENE 6,0 1002,0 91 1,52
02:29 15,4 14,1 1,0 NNW 5,0 1002,0 92 1,27
02:34 15,4 14,1 1,0 NNW 5,0 1002,0 92 1,02
02:39 15,4 14,1 3,0 NE 11,0 1002,0 92 0,51
02:44 15,4 14,1 3,0 NE 11,0 1002,0 92 0,25
02:49 15,5 14,2 5,0 ENE 6,0 1002,0 92 0,76
02:54 15,5 14,2 5,0 SSE 6,0 1002,0 92 0,76
02:59 15,5 14,2 1,0 NNW 6,0 1002,0 92 1,02
03:04 15,5 14,2 1,0 NNE 6,0 1002,0 92 1,02
03:09 15,4 14,3 3,0 NNW 10,0 1002,0 93 1,27
03:14 15,5 14,2 10,0 East 11,0 1002,0 92 1,27
03:19 15,5 14,2 5,0 NNW 6,0 1002,0 92 1,27
03:24 15,4 14,1 5,0 East 10,0 1002,0 92 1,27
03:29 15,4 14,3 3,0 North 6,0 1002,0 93 1,27
03:34 15,4 14,1 3,0 NW 8,0 1002,0 92 1,27
03:39 15,4 14,1 3,0 ENE 6,0 1002,0 92 1,27
03:44 15,4 14,1 3,0 NNW 11,0 1002,0 92 1,27
03:49 15,3 14,0 6,0 NE 8,0 1002,0 92 1,27
03:54 15,4 14,1 1,0 NNW 6,0 1002,0 92 0,76
03:59 15,3 14,0 5,0 NE 6,0 1002,0 92 0,25
04:04 15,3 14,0 6,0 ENE 6,0 1002,0 92 0,25
04:09 15,3 14,2 5,0 NE 6,0 1002,0 93 0,25
04:14 15,3 14,2 1,0 North 6,0 1002,0 93 -
04:19 15,4 14,3 5,0 ENE 6,0 1002,0 93 -
04:24 15,4 14,3 5,0 NE 6,0 1002,0 93 -
04:29 15,4 14,3 3,0 ENE 5,0 1002,0 93 -
04:34 15,4 14,3 3,0 NW 10,0 1002,0 93 -
04:39 15,4 14,3 6,0 NNE 11,0 1002,0 93 -
04:44 15,4 14,3 5,0 NW 8,0 1002,0 93 -
04:49 15,4 14,3 5,0 ENE 8,0 1002,0 93 -
04:54 15,4 14,3 3,0 North 10,0 1002,0 93 -
04:59 15,4 14,3 3,0 NNE 6,0 1002,0 93 -
05:04 15,4 14,3 3,0 NE 11,0 1002,0 93 -
05:09 15,4 14,3 5,0 ENE 6,0 1002,0 93 -
05:13 15,4 14,1 5,0 North 5,0 1002,0 92 -
05:19 15,4 14,1 3,0 NNE 6,0 1002,0 92 -
05:24 15,4 14,1 5,0 NNW 11,0 1002,0 92 -
05:29 15,5 14,2 5,0 NE 6,0 1002,0 92 -
05:34 15,4 13,9 3,0 NNE 11,0 1002,0 91 -
05:39 15,5 14,0 3,0 NE 11,0 1002,0 91 -
05:44 15,5 14,0 5,0 WNW 8,0 1002,0 91 -
05:49 15,5 14,0 6,0 SSE 10,0 1002,4 91 -
05:54 15,6 14,0 5,0 North 11,0 1002,4 90 -
05:59 15,6 13,9 6,0 NNE 10,0 1002,4 90 -
06:04 15,6 13,8 14,0 NNW 15,0 1002,4 89 -
06:09 15,5 13,7 5,0 NNE 11,0 1002,7 89 -
06:14 15,4 13,6 8,0 North 8,0 1002,7 89 -
06:19 15,4 13,6 10,0 NE 10,0 1002,7 89 -
06:24 15,4 13,6 8,0 NE 10,0 1002,7 89 -
06:29 15,4 13,6 6,0 NNE 15,0 1003,1 89 -
06:34 15,4 13,6 5,0 NE 11,0 1002,7 89 -
06:39 15,4 13,6 6,0 ENE 11,0 1003,1 89 -
06:44 15,4 13,6 5,0 NNW 8,0 1003,1 89 -
06:49 15,4 13,6 5,0 ENE 6,0 1003,1 89 -
06:54 15,6 13,8 3,0 NE 10,0 1003,1 89 -
06:59 15,6 13,8 10,0 NNW 11,0 1003,1 89 -
07:04 15,7 13,9 13,0 NW 13,0 1003,1 89 -
07:09 15,7 13,9 1,0 NNW 23,0 1003,1 89 -
07:14 15,7 13,9 8,0 North 13,0 1003,1 89 -
07:19 15,6 13,8 3,0 North 10,0 1003,1 89 -
07:24 15,6 13,8 3,0 NW 11,0 1003,1 89 -
07:29 15,6 13,8 3,0 NNE 5,0 1003,1 89 -
07:34 15,7 14,1 5,0 NNE 8,0 1003,4 90 -
07:39 15,8 14,2 5,0 NNE 10,0 1003,1 90 -
07:44 15,9 14,2 3,0 East 13,0 1003,4 90 -
07:49 15,9 14,3 5,0 NNE 11,0 1003,4 90 0,25
07:54 15,9 14,3 8,0 NNW 13,0 1003,4 90 0,76
07:59 15,8 14,2 8,0 North 11,0 1003,4 90 1,02
08:04 15,6 14,1 8,0 NNE 8,0 1003,7 91 1,02
08:09 15,4 13,9 10,0 NNW 10,0 1003,7 91 1,52
08:14 15,2 13,9 10,0 NW 11,0 1003,7 92 1,78
08:19 15,2 13,9 3,0 NE 11,0 1003,7 92 2,03
08:24 15,2 14,1 1,0 North 6,0 1003,7 93 5,84
08:29 15,2 14,1 5,0 NE 11,0 1004,1 93 6,60
08:34 15,3 14,3 3,0 ENE 8,0 1004,1 94 6,60
08:39 15,3 14,3 5,0 NNW 10,0 1004,1 94 6,60
08:49 15,5 14,5 3,0 NNW 5,0 1004,1 94 6,35
08:54 15,6 14,6 3,0 NNW 11,0 1004,1 94 6,10
08:59 15,7 14,7 6,0 NE 8,0 1004,1 94 5,59
09:04 15,7 14,6 6,0 North 11,0 1004,1 93 5,59
09:09 15,7 14,6 8,0 NNW 13,0 1004,4 93 5,59
09:14 15,7 14,6 5,0 NE 6,0 1004,4 93 5,08
09:19 15,8 14,7 3,0 ENE 6,0 1004,4 93 5,08
09:24 15,8 14,7 3,0 NNE 5,0 1004,4 93 3,81
09:29 15,8 14,7 1,0 North 6,0 1004,7 93 0,51
09:34 15,8 14,7 3,0 NE 10,0 1004,7 93 0,25
09:39 15,8 14,7 3,0 North 10,0 1004,7 93 0,25
09:44 15,9 14,8 3,0 NW 6,0 1004,7 93 0,25
09:49 16,0 14,9 3,0 NNE 8,0 1004,7 93 0,25
09:54 16,1 15,0 6,0 NE 8,0 1004,7 93 0,25
09:59 16,2 15,1 3,0 WNW 6,0 1004,7 93 0,25
10:04 16,3 15,2 3,0 NE 5,0 1004,7 93 0,25
10:09 16,4 15,3 1,0 North 10,0 1004,7 93 0,25
10:14 16,4 15,1 3,0 North 10,0 1004,7 92 1,27
10:18 16,3 15,0 3,0 NW 11,0 1004,7 92 1,52
10:24 16,2 14,9 3,0 NW 5,0 1005,1 92 2,03
10:34 16,1 15,0 3,0 North 8,0 1005,1 93 3,05
10:39 16,2 15,2 11,0 NNW 11,0 1005,1 94 3,05
10:44 16,3 15,3 3,0 NW 11,0 1005,1 94 3,05
10:49 16,6 15,6 6,0 East 11,0 1005,1 94 3,05
10:54 16,6 15,6 5,0 East 10,0 1005,4 94 3,05
10:59 16,8 15,7 6,0 NW 11,0 1005,4 93 3,05
11:04 16,9 15,8 6,0 NNW 11,0 1005,4 93 3,05
11:09 17,0 15,8 1,0 WNW 10,0 1005,4 93 3,05
11:14 16,9 15,4 5,0 West 11,0 1005,8 91 3,05
11:19 16,7 15,1 5,0 NW 15,0 1005,8 90 2,03
11:24 16,8 15,5 5,0 NW 13,0 1005,8 92 1,52
11:29 16,9 15,4 11,0 NNW 16,0 1005,8 91 0,51
11:34 17,1 15,3 3,0 North 15,0 1005,8 90 -
11:39 17,2 15,5 5,0 NW 6,0 1005,8 90 -
11:44 17,2 15,5 10,0 West 13,0 1005,8 90 -
11:49 17,4 15,7 8,0 NNW 8,0 1005,8 90 -
11:54 17,7 15,8 5,0 ENE 16,0 1006,1 89 -
11:59 17,8 15,6 6,0 NW 15,0 1006,1 87 -
12:04 17,7 15,3 3,0 West 11,0 1006,1 86 -
12:09 17,7 15,7 8,0 North 18,0 1006,1 88 -
12:14 17,9 15,3 14,0 NNW 18,0 1006,1 85 -
12:19 18,2 16,0 1,0 NNE 8,0 1006,1 87 -
12:24 18,4 15,9 10,0 NW 18,0 1006,4 86 -
12:29 18,4 15,3 11,0 NW 18,0 1006,4 82 -
12:34 18,4 15,5 6,0 North 11,0 1006,4 83 -
12:39 18,8 16,0 13,0 NW 16,0 1006,4 85 -
12:44 19,0 15,5 8,0 NW 16,0 1006,4 81 0,25
12:49 19,3 16,1 6,0 WNW 16,0 1006,4 82 0,25
12:54 19,2 15,3 6,0 NNW 13,0 1006,4 78 0,25
12:59 19,1 15,6 6,0 NNE 6,0 1006,4 80 0,25
13:04 18,9 15,8 5,0 East 10,0 1006,4 82 0,25
13:09 18,9 15,9 5,0 NW 8,0 1006,8 83 0,25
13:14 19,2 16,2 6,0 NNE 16,0 1006,8 83 0,25
13:19 19,3 16,1 6,0 NNE 10,0 1006,8 82 0,25
13:24 19,3 16,0 14,0 NNW 15,0 1006,8 81 0,25
13:29 19,4 16,0 8,0 NNW 15,0 1006,8 81 0,25
13:34 19,5 16,2 5,0 NNW 13,0 1007,1 82 0,25
13:39 19,4 15,6 3,0 North 13,0 1007,1 79 0,25
13:44 19,4 15,9 10,0 NW 11,0 1007,1 80 -
13:49 19,6 15,7 8,0 North 15,0 1007,1 78 -
13:54 19,6 15,9 6,0 NW 15,0 1007,5 80 0,25
13:59 18,9 15,7 6,0 NW 10,0 1007,5 83 0,25
14:04 18,6 16,4 11,0 NW 16,0 1007,5 87 0,25
14:09 18,3 15,7 5,0 NW 15,0 1007,5 85 0,25
14:14 18,3 15,7 6,0 WNW 16,0 1007,5 85 0,25
14:19 18,4 15,8 5,0 NNW 13,0 1007,5 85 0,25
14:24 18,7 15,8 10,0 North 13,0 1007,5 84 0,25
14:29 18,8 15,8 3,0 NNW 6,0 1007,5 83 0,25
14:34 19,1 16,0 1,0 NNE 15,0 1007,5 82 0,25
14:39 19,5 16,0 5,0 North 13,0 1007,5 80 0,25
14:44 19,9 15,8 5,0 NW 16,0 1007,5 78 0,25
14:49 20,2 16,4 11,0 NW 16,0 1007,5 79 0,25
14:54 20,3 15,9 8,0 North 18,0 1007,5 76 0,25
14:59 20,6 16,2 6,0 ENE 16,0 1007,8 77 -
15:04 20,7 16,3 6,0 NNW 19,0 1007,8 76 -
15:09 20,7 15,7 8,0 WNW 15,0 1007,8 73 -
15:14 20,7 15,9 11,0 NW 15,0 1007,8 74 -
15:19 20,8 15,9 5,0 NNE 11,0 1007,8 74 -
15:24 20,7 15,7 6,0 NNW 11,0 1007,8 73 -
15:29 20,4 15,6 14,0 North 16,0 1008,1 74 -
15:34 20,2 15,4 10,0 NW 15,0 1008,1 74 -
15:39 20,3 15,5 6,0 North 16,0 1008,1 74 -
15:44 20,6 15,8 8,0 North 13,0 1008,1 74 -
15:49 20,7 15,7 5,0 North 13,0 1008,1 73 -
15:54 21,0 16,2 6,0 NW 15,0 1008,1 75 -
15:59 21,1 16,1 5,0 WNW 16,0 1008,1 73 -
16:04 20,9 15,4 11,0 NW 15,0 1008,5 71 -
16:09 20,5 15,5 10,0 NW 15,0 1008,5 75 -
16:14 19,7 15,5 10,0 NW 13,0 1008,5 79 0,25
16:19 19,0 15,6 6,0 WNW 10,0 1008,5 82 0,25
16:24 18,8 15,9 6,0 NNW 13,0 1008,5 83 0,25
16:29 19,0 15,7 8,0 NW 15,0 1008,5 82 0,25
16:34 19,2 15,9 10,0 NNE 13,0 1008,5 81 0,25
16:39 19,3 16,0 6,0 NW 11,0 1008,5 81 0,25
16:44 19,2 15,9 11,0 NW 11,0 1008,5 81 0,25
16:49 18,9 15,4 6,0 NNW 19,0 1008,5 81 0,25
16:54 18,6 15,5 6,0 NNW 13,0 1008,5 82 0,25
16:59 18,4 15,7 5,0 NNE 10,0 1008,5 85 0,76
17:04 18,3 15,5 10,0 North 11,0 1008,5 85 1,52
17:09 18,1 15,9 3,0 NNE 6,0 1008,5 87 1,52
17:14 18,3 16,3 3,0 WSW 8,0 1008,5 88 1,27
17:19 18,3 16,3 5,0 WNW 11,0 1008,5 88 1,27
17:24 18,3 15,9 5,0 North 11,0 1008,5 86 1,27
17:29 18,4 16,0 5,0 NNE 8,0 1008,5 86 1,27
17:34 18,7 16,2 5,0 NW 11,0 1008,5 86 1,27
17:39 18,9 15,9 6,0 NW 11,0 1008,8 83 1,27
17:44 18,9 15,9 5,0 NW 11,0 1008,8 83 1,27
17:49 18,8 15,3 6,0 NW 11,0 1008,8 80 1,27
17:54 18,7 15,4 5,0 WNW 8,0 1008,8 81 1,27
17:59 18,6 15,5 5,0 WNW 13,0 1008,8 82 1,02
18:04 18,6 15,4 11,0 NW 13,0 1008,8 82 0,51
18:09 18,5 15,6 3,0 NW 5,0 1008,8 83 -
18:14 18,7 15,8 1,0 NW 6,0 1008,8 83 -
18:19 18,9 16,1 5,0 NW 10,0 1008,8 84 -
18:24 19,2 15,7 8,0 NW 13,0 1008,8 80 -
18:29 19,1 15,6 3,0 West 13,0 1008,8 80 -
18:34 18,9 15,2 3,0 NE 11,0 1008,8 79 -
18:39 18,8 15,1 6,0 NNW 15,0 1008,8 80 -
18:44 18,7 15,2 6,0 NNW 11,0 1008,8 80 -
18:49 19,1 15,6 13,0 NW 13,0 1008,8 81 -
18:54 19,4 15,5 10,0 North 13,0 1008,8 79 -
18:59 19,6 15,7 5,0 NW 11,0 1008,8 78 -
19:04 19,7 15,8 11,0 WNW 11,0 1008,8 78 -
19:09 19,7 15,8 3,0 WNW 11,0 1008,8 78 -
19:14 19,8 15,9 3,0 NW 11,0 1008,8 78 -
19:19 19,7 15,1 6,0 WNW 11,0 1008,8 75 -
19:24 19,6 15,3 11,0 NW 13,0 1008,8 76 -
19:29 19,5 15,4 5,0 NNW 6,0 1008,8 77 -
19:34 19,3 15,2 1,0 NW 3,0 1008,8 77 -
19:39 19,2 15,2 3,0 NNW 6,0 1008,8 78 -
19:44 19,1 15,0 5,0 NW 8,0 1008,8 77 -
19:49 18,9 15,0 5,0 WNW 8,0 1008,8 78 -
19:54 18,8 14,9 3,0 NNW 6,0 1008,8 78 -
19:59 18,7 15,2 5,0 East 5,0 1008,8 80 -
20:04 18,7 15,2 1,0 North 5,0 1008,8 80 -
20:09 18,7 15,1 3,0 North 5,0 1008,8 80 -
20:14 18,6 15,1 3,0 NNW 5,0 1008,8 80 -
20:19 18,6 15,1 3,0 ENE 5,0 1008,8 80 -
20:24 18,4 14,9 1,0 NW 5,0 1008,8 80 -
20:29 18,3 14,8 1,0 NW 6,0 1008,8 80 -
20:34 18,3 14,8 3,0 NNE 6,0 1008,8 80 -
20:39 18,3 14,8 5,0 NW 5,0 1008,8 80 -
20:44 18,3 14,6 5,0 North 6,0 1008,8 79 -
20:49 18,2 14,7 3,0 ENE 5,0 1008,8 80 -
20:54 18,1 14,8 1,0 NNE 3,0 1008,8 81 -
20:59 18,1 14,8 5,0 NNW 6,0 1008,8 81 -
Daily Summary for Saturday Jul 31 2021
Time Temp. ( °C ) Dew pt. ( °C ) Wind ( km/h ) From Gust ( km/h ) Pressure ( hPa ) Humid.( % ) Rainrate ( cm )
High21,1 16,4 14,0 NW ( 366/1361 ) 23,0 1008,8 94 6,60
Average17,2 14,9 5,5 NW #56/249 10,4 1005,3 86 2,70
Low15,2 13,4 1,0   3,0 1002,0 71 -
Daily Tabular details for Saturday Jul 31 2021
Time Temp. ( °C ) Dew pt. ( °C ) Wind ( km/h ) From Gust ( km/h ) Pressure ( hPa ) Humid.( % ) Rainrate ( cm )
00:04 16,8 13,4 5,0 NW 11,0 1003,1 81 -
00:09 16,6 13,6 3,0 WNW 8,0 1003,1 83 -
00:14 16,3 13,6 5,0 NNE 8,0 1003,1 84 -
00:19 16,1 13,6 5,0 NE 13,0 1003,1 85 -
00:24 16,0 13,5 5,0 North 6,0 1002,7 85 -
00:29 15,9 13,6 8,0 ENE 13,0 1002,7 86 -
00:34 15,9 13,4 3,0 ENE 10,0 1002,7 85 -
00:39 15,9 13,4 6,0 ENE 10,0 1002,4 85 -
00:44 15,9 13,4 5,0 ENE 10,0 1002,4 85 -
00:49 16,0 13,6 8,0 NNE 8,0 1002,4 86 0,25
00:54 15,9 13,4 3,0 NE 16,0 1002,4 85 0,25
00:59 15,9 13,4 6,0 ENE 15,0 1002,4 85 0,25
01:04 15,9 13,4 10,0 NE 15,0 1002,4 85 0,25
01:09 15,9 13,4 10,0 ENE 15,0 1002,4 85 0,25
01:14 16,0 13,5 6,0 NW 15,0 1002,4 85 0,25
01:19 16,0 13,5 11,0 East 13,0 1002,4 85 0,25
01:24 16,0 13,5 6,0 ENE 13,0 1002,4 85 0,51
01:29 16,0 13,7 5,0 North 13,0 1002,4 87 0,51
01:34 15,9 13,8 5,0 NNW 10,0 1002,4 88 1,27
01:39 15,8 13,9 5,0 NNE 8,0 1002,4 89 1,52
01:44 15,7 13,9 6,0 East 10,0 1002,4 89 1,52
01:49 15,6 14,0 3,0 NNW 6,0 1002,4 90 1,52
01:54 15,6 14,0 6,0 NE 8,0 1002,4 90 1,52
01:59 15,5 13,9 5,0 NNE 11,0 1002,4 90 1,52
02:09 15,4 13,9 3,0 ENE 6,0 1002,4 91 1,52
02:14 15,4 13,9 3,0 North 10,0 1002,0 91 1,52
02:19 15,4 13,9 3,0 ENE 6,0 1002,4 91 1,52
02:24 15,4 13,9 3,0 ENE 6,0 1002,0 91 1,52
02:29 15,4 14,1 1,0 NNW 5,0 1002,0 92 1,27
02:34 15,4 14,1 1,0 NNW 5,0 1002,0 92 1,02
02:39 15,4 14,1 3,0 NE 11,0 1002,0 92 0,51
02:44 15,4 14,1 3,0 NE 11,0 1002,0 92 0,25
02:49 15,5 14,2 5,0 ENE 6,0 1002,0 92 0,76
02:54 15,5 14,2 5,0 SSE 6,0 1002,0 92 0,76
02:59 15,5 14,2 1,0 NNW 6,0 1002,0 92 1,02
03:04 15,5 14,2 1,0 NNE 6,0 1002,0 92 1,02
03:09 15,4 14,3 3,0 NNW 10,0 1002,0 93 1,27
03:14 15,5 14,2 10,0 East 11,0 1002,0 92 1,27
03:19 15,5 14,2 5,0 NNW 6,0 1002,0 92 1,27
03:24 15,4 14,1 5,0 East 10,0 1002,0 92 1,27
03:29 15,4 14,3 3,0 North 6,0 1002,0 93 1,27
03:34 15,4 14,1 3,0 NW 8,0 1002,0 92 1,27
03:39 15,4 14,1 3,0 ENE 6,0 1002,0 92 1,27
03:44 15,4 14,1 3,0 NNW 11,0 1002,0 92 1,27
03:49 15,3 14,0 6,0 NE 8,0 1002,0 92 1,27
03:54 15,4 14,1 1,0 NNW 6,0 1002,0 92 0,76
03:59 15,3 14,0 5,0 NE 6,0 1002,0 92 0,25
04:04 15,3 14,0 6,0 ENE 6,0 1002,0 92 0,25
04:09 15,3 14,2 5,0 NE 6,0 1002,0 93 0,25
04:14 15,3 14,2 1,0 North 6,0 1002,0 93 -
04:19 15,4 14,3 5,0 ENE 6,0 1002,0 93 -
04:24 15,4 14,3 5,0 NE 6,0 1002,0 93 -
04:29 15,4 14,3 3,0 ENE 5,0 1002,0 93 -
04:34 15,4 14,3 3,0 NW 10,0 1002,0 93 -
04:39 15,4 14,3 6,0 NNE 11,0 1002,0 93 -
04:44 15,4 14,3 5,0 NW 8,0 1002,0 93 -
04:49 15,4 14,3 5,0 ENE 8,0 1002,0 93 -
04:54 15,4 14,3 3,0 North 10,0 1002,0 93 -
04:59 15,4 14,3 3,0 NNE 6,0 1002,0 93 -
05:04 15,4 14,3 3,0 NE 11,0 1002,0 93 -
05:09 15,4 14,3 5,0 ENE 6,0 1002,0 93 -
05:13 15,4 14,1 5,0 North 5,0 1002,0 92 -
05:19 15,4 14,1 3,0 NNE 6,0 1002,0 92 -
05:24 15,4 14,1 5,0 NNW 11,0 1002,0 92 -
05:29 15,5 14,2 5,0 NE 6,0 1002,0 92 -
05:34 15,4 13,9 3,0 NNE 11,0 1002,0 91 -
05:39 15,5 14,0 3,0 NE 11,0 1002,0 91 -
05:44 15,5 14,0 5,0 WNW 8,0 1002,0 91 -
05:49 15,5 14,0 6,0 SSE 10,0 1002,4 91 -
05:54 15,6 14,0 5,0 North 11,0 1002,4 90 -
05:59 15,6 13,9 6,0 NNE 10,0 1002,4 90 -
06:04 15,6 13,8 14,0 NNW 15,0 1002,4 89 -
06:09 15,5 13,7 5,0 NNE 11,0 1002,7 89 -
06:14 15,4 13,6 8,0 North 8,0 1002,7 89 -
06:19 15,4 13,6 10,0 NE 10,0 1002,7 89 -
06:24 15,4 13,6 8,0 NE 10,0 1002,7 89 -
06:29 15,4 13,6 6,0 NNE 15,0 1003,1 89 -
06:34 15,4 13,6 5,0 NE 11,0 1002,7 89 -
06:39 15,4 13,6 6,0 ENE 11,0 1003,1 89 -
06:44 15,4 13,6 5,0 NNW 8,0 1003,1 89 -
06:49 15,4 13,6 5,0 ENE 6,0 1003,1 89 -
06:54 15,6 13,8 3,0 NE 10,0 1003,1 89 -
06:59 15,6 13,8 10,0 NNW 11,0 1003,1 89 -
07:04 15,7 13,9 13,0 NW 13,0 1003,1 89 -
07:09 15,7 13,9 1,0 NNW 23,0 1003,1 89 -
07:14 15,7 13,9 8,0 North 13,0 1003,1 89 -
07:19 15,6 13,8 3,0 North 10,0 1003,1 89 -
07:24 15,6 13,8 3,0 NW 11,0 1003,1 89 -
07:29 15,6 13,8 3,0 NNE 5,0 1003,1 89 -
07:34 15,7 14,1 5,0 NNE 8,0 1003,4 90 -
07:39 15,8 14,2 5,0 NNE 10,0 1003,1 90 -
07:44 15,9 14,2 3,0 East 13,0 1003,4 90 -
07:49 15,9 14,3 5,0 NNE 11,0 1003,4 90 0,25
07:54 15,9 14,3 8,0 NNW 13,0 1003,4 90 0,76
07:59 15,8 14,2 8,0 North 11,0 1003,4 90 1,02
08:04 15,6 14,1 8,0 NNE 8,0 1003,7 91 1,02
08:09 15,4 13,9 10,0 NNW 10,0 1003,7 91 1,52
08:14 15,2 13,9 10,0 NW 11,0 1003,7 92 1,78
08:19 15,2 13,9 3,0 NE 11,0 1003,7 92 2,03
08:24 15,2 14,1 1,0 North 6,0 1003,7 93 5,84
08:29 15,2 14,1 5,0 NE 11,0 1004,1 93 6,60
08:34 15,3 14,3 3,0 ENE 8,0 1004,1 94 6,60
08:39 15,3 14,3 5,0 NNW 10,0 1004,1 94 6,60
08:49 15,5 14,5 3,0 NNW 5,0 1004,1 94 6,35
08:54 15,6 14,6 3,0 NNW 11,0 1004,1 94 6,10
08:59 15,7 14,7 6,0 NE 8,0 1004,1 94 5,59
09:04 15,7 14,6 6,0 North 11,0 1004,1 93 5,59
09:09 15,7 14,6 8,0 NNW 13,0 1004,4 93 5,59
09:14 15,7 14,6 5,0 NE 6,0 1004,4 93 5,08
09:19 15,8 14,7 3,0 ENE 6,0 1004,4 93 5,08
09:24 15,8 14,7 3,0 NNE 5,0 1004,4 93 3,81
09:29 15,8 14,7 1,0 North 6,0 1004,7 93 0,51
09:34 15,8 14,7 3,0 NE 10,0 1004,7 93 0,25
09:39 15,8 14,7 3,0 North 10,0 1004,7 93 0,25
09:44 15,9 14,8 3,0 NW 6,0 1004,7 93 0,25
09:49 16,0 14,9 3,0 NNE 8,0 1004,7 93 0,25
09:54 16,1 15,0 6,0 NE 8,0 1004,7 93 0,25
09:59 16,2 15,1 3,0 WNW 6,0 1004,7 93 0,25
10:04 16,3 15,2 3,0 NE 5,0 1004,7 93 0,25
10:09 16,4 15,3 1,0 North 10,0 1004,7 93 0,25
10:14 16,4 15,1 3,0 North 10,0 1004,7 92 1,27
10:18 16,3 15,0 3,0 NW 11,0 1004,7 92 1,52
10:24 16,2 14,9 3,0 NW 5,0 1005,1 92 2,03
10:34 16,1 15,0 3,0 North 8,0 1005,1 93 3,05
10:39 16,2 15,2 11,0 NNW 11,0 1005,1 94 3,05
10:44 16,3 15,3 3,0 NW 11,0 1005,1 94 3,05
10:49 16,6 15,6 6,0 East 11,0 1005,1 94 3,05
10:54 16,6 15,6 5,0 East 10,0 1005,4 94 3,05
10:59 16,8 15,7 6,0 NW 11,0 1005,4 93 3,05
11:04 16,9 15,8 6,0 NNW 11,0 1005,4 93 3,05
11:09 17,0 15,8 1,0 WNW 10,0 1005,4 93 3,05
11:14 16,9 15,4 5,0 West 11,0 1005,8 91 3,05
11:19 16,7 15,1 5,0 NW 15,0 1005,8 90 2,03
11:24 16,8 15,5 5,0 NW 13,0 1005,8 92 1,52
11:29 16,9 15,4 11,0 NNW 16,0 1005,8 91 0,51
11:34 17,1 15,3 3,0 North 15,0 1005,8 90 -
11:39 17,2 15,5 5,0 NW 6,0 1005,8 90 -
11:44 17,2 15,5 10,0 West 13,0 1005,8 90 -
11:49 17,4 15,7 8,0 NNW 8,0 1005,8 90 -
11:54 17,7 15,8 5,0 ENE 16,0 1006,1 89 -
11:59 17,8 15,6 6,0 NW 15,0 1006,1 87 -
12:04 17,7 15,3 3,0 West 11,0 1006,1 86 -
12:09 17,7 15,7 8,0 North 18,0 1006,1 88 -
12:14 17,9 15,3 14,0 NNW 18,0 1006,1 85 -
12:19 18,2 16,0 1,0 NNE 8,0 1006,1 87 -
12:24 18,4 15,9 10,0 NW 18,0 1006,4 86 -
12:29 18,4 15,3 11,0 NW 18,0 1006,4 82 -
12:34 18,4 15,5 6,0 North 11,0 1006,4 83 -
12:39 18,8 16,0 13,0 NW 16,0 1006,4 85 -
12:44 19,0 15,5 8,0 NW 16,0 1006,4 81 0,25
12:49 19,3 16,1 6,0 WNW 16,0 1006,4 82 0,25
12:54 19,2 15,3 6,0 NNW 13,0 1006,4 78 0,25
12:59 19,1 15,6 6,0 NNE 6,0 1006,4 80 0,25
13:04 18,9 15,8 5,0 East 10,0 1006,4 82 0,25
13:09 18,9 15,9 5,0 NW 8,0 1006,8 83 0,25
13:14 19,2 16,2 6,0 NNE 16,0 1006,8 83 0,25
13:19 19,3 16,1 6,0 NNE 10,0 1006,8 82 0,25
13:24 19,3 16,0 14,0 NNW 15,0 1006,8 81 0,25
13:29 19,4 16,0 8,0 NNW 15,0 1006,8 81 0,25
13:34 19,5 16,2 5,0 NNW 13,0 1007,1 82 0,25
13:39 19,4 15,6 3,0 North 13,0 1007,1 79 0,25
13:44 19,4 15,9 10,0 NW 11,0 1007,1 80 -
13:49 19,6 15,7 8,0 North 15,0 1007,1 78 -
13:54 19,6 15,9 6,0 NW 15,0 1007,5 80 0,25
13:59 18,9 15,7 6,0 NW 10,0 1007,5 83 0,25
14:04 18,6 16,4 11,0 NW 16,0 1007,5 87 0,25
14:09 18,3 15,7 5,0 NW 15,0 1007,5 85 0,25
14:14 18,3 15,7 6,0 WNW 16,0 1007,5 85 0,25
14:19 18,4 15,8 5,0 NNW 13,0 1007,5 85 0,25
14:24 18,7 15,8 10,0 North 13,0 1007,5 84 0,25
14:29 18,8 15,8 3,0 NNW 6,0 1007,5 83 0,25
14:34 19,1 16,0 1,0 NNE 15,0 1007,5 82 0,25
14:39 19,5 16,0 5,0 North 13,0 1007,5 80 0,25
14:44 19,9 15,8 5,0 NW 16,0 1007,5 78 0,25
14:49 20,2 16,4 11,0 NW 16,0 1007,5 79 0,25
14:54 20,3 15,9 8,0 North 18,0 1007,5 76 0,25
14:59 20,6 16,2 6,0 ENE 16,0 1007,8 77 -
15:04 20,7 16,3 6,0 NNW 19,0 1007,8 76 -
15:09 20,7 15,7 8,0 WNW 15,0 1007,8 73 -
15:14 20,7 15,9 11,0 NW 15,0 1007,8 74 -
15:19 20,8 15,9 5,0 NNE 11,0 1007,8 74 -
15:24 20,7 15,7 6,0 NNW 11,0 1007,8 73 -
15:29 20,4 15,6 14,0 North 16,0 1008,1 74 -
15:34 20,2 15,4 10,0 NW 15,0 1008,1 74 -
15:39 20,3 15,5 6,0 North 16,0 1008,1 74 -
15:44 20,6 15,8 8,0 North 13,0 1008,1 74 -
15:49 20,7 15,7 5,0 North 13,0 1008,1 73 -
15:54 21,0 16,2 6,0 NW 15,0 1008,1 75 -
15:59 21,1 16,1 5,0 WNW 16,0 1008,1 73 -
16:04 20,9 15,4 11,0 NW 15,0 1008,5 71 -
16:09 20,5 15,5 10,0 NW 15,0 1008,5 75 -
16:14 19,7 15,5 10,0 NW 13,0 1008,5 79 0,25
16:19 19,0 15,6 6,0 WNW 10,0 1008,5 82 0,25
16:24 18,8 15,9 6,0 NNW 13,0 1008,5 83 0,25
16:29 19,0 15,7 8,0 NW 15,0 1008,5 82 0,25
16:34 19,2 15,9 10,0 NNE 13,0 1008,5 81 0,25
16:39 19,3 16,0 6,0 NW 11,0 1008,5 81 0,25
16:44 19,2 15,9 11,0 NW 11,0 1008,5 81 0,25
16:49 18,9 15,4 6,0 NNW 19,0 1008,5 81 0,25
16:54 18,6 15,5 6,0 NNW 13,0 1008,5 82 0,25
16:59 18,4 15,7 5,0 NNE 10,0 1008,5 85 0,76
17:04 18,3 15,5 10,0 North 11,0 1008,5 85 1,52
17:09 18,1 15,9 3,0 NNE 6,0 1008,5 87 1,52
17:14 18,3 16,3 3,0 WSW 8,0 1008,5 88 1,27
17:19 18,3 16,3 5,0 WNW 11,0 1008,5 88 1,27
17:24 18,3 15,9 5,0 North 11,0 1008,5 86 1,27
17:29 18,4 16,0 5,0 NNE 8,0 1008,5 86 1,27
17:34 18,7 16,2 5,0 NW 11,0 1008,5 86 1,27
17:39 18,9 15,9 6,0 NW 11,0 1008,8 83 1,27
17:44 18,9 15,9 5,0 NW 11,0 1008,8 83 1,27
17:49 18,8 15,3 6,0 NW 11,0 1008,8 80 1,27
17:54 18,7 15,4 5,0 WNW 8,0 1008,8 81 1,27
17:59 18,6 15,5 5,0 WNW 13,0 1008,8 82 1,02
18:04 18,6 15,4 11,0 NW 13,0 1008,8 82 0,51
18:09 18,5 15,6 3,0 NW 5,0 1008,8 83 -
18:14 18,7 15,8 1,0 NW 6,0 1008,8 83 -
18:19 18,9 16,1 5,0 NW 10,0 1008,8 84 -
18:24 19,2 15,7 8,0 NW 13,0 1008,8 80 -
18:29 19,1 15,6 3,0 West 13,0 1008,8 80 -
18:34 18,9 15,2 3,0 NE 11,0 1008,8 79 -
18:39 18,8 15,1 6,0 NNW 15,0 1008,8 80 -
18:44 18,7 15,2 6,0 NNW 11,0 1008,8 80 -
18:49 19,1 15,6 13,0 NW 13,0 1008,8 81 -
18:54 19,4 15,5 10,0 North 13,0 1008,8 79 -
18:59 19,6 15,7 5,0 NW 11,0 1008,8 78 -
19:04 19,7 15,8 11,0 WNW 11,0 1008,8 78 -
19:09 19,7 15,8 3,0 WNW 11,0 1008,8 78 -
19:14 19,8 15,9 3,0 NW 11,0 1008,8 78 -
19:19 19,7 15,1 6,0 WNW 11,0 1008,8 75 -
19:24 19,6 15,3 11,0 NW 13,0 1008,8 76 -
19:29 19,5 15,4 5,0 NNW 6,0 1008,8 77 -
19:34 19,3 15,2 1,0 NW 3,0 1008,8 77 -
19:39 19,2 15,2 3,0 NNW 6,0 1008,8 78 -
19:44 19,1 15,0 5,0 NW 8,0 1008,8 77 -
19:49 18,9 15,0 5,0 WNW 8,0 1008,8 78 -
19:54 18,8 14,9 3,0 NNW 6,0 1008,8 78 -
19:59 18,7 15,2 5,0 East 5,0 1008,8 80 -
20:04 18,7 15,2 1,0 North 5,0 1008,8 80 -
20:09 18,7 15,1 3,0 North 5,0 1008,8 80 -
20:14 18,6 15,1 3,0 NNW 5,0 1008,8 80 -
20:19 18,6 15,1 3,0 ENE 5,0 1008,8 80 -
20:24 18,4 14,9 1,0 NW 5,0 1008,8 80 -
20:29 18,3 14,8 1,0 NW 6,0 1008,8 80 -
20:34 18,3 14,8 3,0 NNE 6,0 1008,8 80 -
20:39 18,3 14,8 5,0 NW 5,0 1008,8 80 -
20:44 18,3 14,6 5,0 North 6,0 1008,8 79 -
20:49 18,2 14,7 3,0 ENE 5,0 1008,8 80 -
20:54 18,1 14,8 1,0 NNE 3,0 1008,8 81 -
20:59 18,1 14,8 5,0 NNW 6,0 1008,8 81 -

Download your copy of this data-set  from WeatherUnderground

Our weather-data as stored at Weather Underground. Original script b Jim McMurry. Rewritten for template use Leuven-Template